This demonstration page uses our WeatherBlox Daily Observations layout. Learn more.

Left ArrowRight Arrow

39.29038, -76.61219

Hourly Observations for May 9, 2021

Temp ( °F °C ) Dew Point ( °F °C ) Humidity (%) Winds ( mph kmh ) Pressure ( in mb ) Visibility ( mi km ) Precip ( " mm )
12:54 am 00:54 Partly Cloudy 46 7.8 37 2.8 71 71 N N/A 30.09 1019 10 16.0934 N/A
1:54 am 01:54 Mostly Cloudy 44 6.7 38 3.3 79 79 N N/A 30.08 1019 10 16.0934 N/A
2:54 am 02:54 Mostly Cloudy 43 6.1 38 3.3 82 82 WSW 3 6 30.08 1019 10 16.0934 N/A
3:54 am 03:54 Cloudy 44 6.7 39 3.9 83 83 N N/A 30.09 1019 10 16.0934 N/A
4:54 am 04:54 Cloudy 45 7.2 39 3.9 80 80 WSW 3 6 30.11 1020 10 16.0934 N/A
5:54 am 05:54 Cloudy 47 8.3 38 3.3 71 71 N N/A 30.11 1020 10 16.0934 N/A
6:54 am 06:54 Cloudy 47 8.3 38 3.3 71 71 N N/A 30.12 1020 10 16.0934 N/A
7:54 am 07:54 Cloudy 50 10 35 1.7 57 57 N N/A 30.11 1020 10 16.0934 N/A
8:54 am 08:54 Cloudy 51 10.6 38 3.3 61 61 SSW 7 11 30.13 1020 10 16.0934 N/A
9:54 am 09:54 Cloudy 51 10.6 39 3.9 64 64 SW 6 9 30.12 1020 10 16.0934 N/A
10:54 am 10:54 Cloudy 53 11.7 41 5 64 64 SSW 3 6 30.11 1020 10 16.0934 N/A
11:54 am 11:54 Cloudy 57 13.9 41 5 55 55 ESE 5 7 30.09 1019 10 16.0934 N/A
12:54 pm 12:54 Mostly Cloudy 59 15 38 3.3 46 46 SSE 9 15 30.03 1017 10 16.0934 N/A
1:54 pm 13:54 Mostly Cloudy 59 15 37 2.8 44 44 SE 10 17 29.98 1015 10 16.0934 N/A
2:54 pm 14:54 Mostly Cloudy 63 17.2 39 3.9 41 41 SE 12 19 29.94 1014 10 16.0934 N/A
3:54 pm 15:54 Mostly Cloudy 64 17.8 42 5.6 45 45 SE 10 17 29.91 1013 10 16.0934 N/A
5:54 pm 17:54 Mostly Cloudy 62 16.7 47 8.3 58 58 SE 10 17 29.83 1010 10 16.0934 N/A
6:54 pm 18:54 Mostly Cloudy 62 16.7 47 8.3 58 58 SE 9 15 29.78 1009 10 16.0934 N/A
7:54 pm 19:54 Cloudy 61 16.1 50 10 67 67 VRB 6 9 29.78 1008 10 16.0934 N/A
8:54 pm 20:54 Cloudy 60 15.6 54 12.2 80 80 SE 6 9 29.76 1008 10 16.0934 0.01 0.254
9:54 pm 21:54 Mostly Cloudy 61 16.1 55 12.8 81 81 ESE 5 7 29.73 1007 10 16.0934 N/A
10:54 pm 22:54 Mostly Cloudy 60 15.6 56 13.3 86 86 E 3 6 29.71 1006 10 16.0934 N/A
11:54 pm 23:54 Mostly Cloudy 60 15.6 56 13.3 86 86 N N/A 29.69 1006 10 16.0934 N/A

Powered by AerisWeather